• In Germany
  • List of Countries
  • For 7 days
  • Water Temperature
  • Satellite Maps
  • Weather Map
  • Weather Widgets
  • user-avatar
    Login

    Hourly Weather Kipungo

    Today, 25 September, Monday

    Time Temperature Precipitation Wind Pressure Humidity
    00:00 +21°C° 0 mm 2 mps 654 mmHg 67%
    01:00 +21°C° 0 mm 1 mps 653 mmHg 73%
    02:00 +20°C° 0 mm 1 mps 653 mmHg 76%
    03:00 +20°C° 0 mm 1 mps 653 mmHg 79%
    04:00 +19°C° 0 mm 1 mps 652 mmHg 81%
    05:00 +20°C° 0 mm 1 mps 653 mmHg 76%
    06:00 +19°C° 0 mm 0 mps 654 mmHg 71%
    07:00 +20°C° 0 mm 0 mps 654 mmHg 65%
    08:00 +24°C° 0 mm 0 mps 655 mmHg 51%
    09:00 +30°C° 0 mm 1 mps 656 mmHg 37%
    10:00 +34°C° 0 mm 1 mps 657 mmHg 23%
    11:00 +36°C° 0 mm 1 mps 656 mmHg 19%
    12:00 +37°C° 0 mm 1 mps 656 mmHg 16%
    13:00 +40°C° 0 mm 2 mps 655 mmHg 12%
    14:00 +39°C° 0 mm 1 mps 655 mmHg 12%
    15:00 +39°C° 0 mm 1 mps 654 mmHg 12%
    16:00 +37°C° 0 mm 1 mps 653 mmHg 12%
    17:00 +36°C° 0 mm 2 mps 653 mmHg 17%
    18:00 +32°C° 0 mm 2 mps 653 mmHg 22%
    19:00 +30°C° 0 mm 2 mps 653 mmHg 26%
    20:00 +28°C° 0 mm 3 mps 653 mmHg 35%
    21:00 +26°C° 0 mm 3 mps 653 mmHg 44%
    22:00 +25°C° 0 mm 3 mps 653 mmHg 53%
    23:00 +24°C° 0 mm 3 mps 653 mmHg 57%

    Tomorrow, 26 September, Tuesday

    Time Temperature Precipitation Wind Pressure Humidity
    00:00 +23°C° 0 mm 2 mps 653 mmHg 61%
    01:00 +21°C° 0 mm 2 mps 652 mmHg 65%
    02:00 +20°C° 0 mm 2 mps 652 mmHg 67%
    03:00 +21°C° 0 mm 1 mps 652 mmHg 69%
    04:00 +20°C° 0 mm 1 mps 651 mmHg 71%
    05:00 +21°C° 0 mm 1 mps 652 mmHg 65%
    06:00 +22°C° 0 mm 1 mps 652 mmHg 60%
    07:00 +23°C° 0 mm 1 mps 653 mmHg 54%
    08:00 +26°C° 0 mm 2 mps 654 mmHg 42%
    09:00 +30°C° 0 mm 3 mps 654 mmHg 30%
    10:00 +34°C° 0 mm 4 mps 655 mmHg 17%
    11:00 +36°C° 0 mm 3 mps 655 mmHg 14%
    12:00 +38°C° 0 mm 3 mps 654 mmHg 12%
    13:00 +39°C° 0 mm 3 mps 653 mmHg 9%
    14:00 +39°C° 0 mm 2 mps 653 mmHg 9%
    15:00 +39°C° 0 mm 2 mps 652 mmHg 9%
    16:00 +39°C° 0 mm 2 mps 652 mmHg 8%
    17:00 +36°C° 0 mm 2 mps 652 mmHg 15%
    18:00 +33°C° 0 mm 3 mps 652 mmHg 21%
    19:00 +29°C° 0 mm 4 mps 652 mmHg 27%
    20:00 +27°C° 0 mm 3 mps 652 mmHg 35%
    21:00 +25°C° 0 mm 3 mps 652 mmHg 43%
    22:00 +24°C° 0 mm 3 mps 653 mmHg 51%
    23:00 +23°C° 0 mm 2 mps 652 mmHg 55%

    Day after tomorrow, 27 September, Wednesday

    Time Temperature Precipitation Wind Pressure Humidity
    00:00 +21°C° 0 mm 2 mps 652 mmHg 59%
    01:00 +20°C° 0 mm 2 mps 652 mmHg 63%
    02:00 +20°C° 0 mm 1 mps 652 mmHg 65%
    03:00 +20°C° 0 mm 1 mps 652 mmHg 67%
    04:00 +19°C° 0 mm 1 mps 651 mmHg 70%
    05:00 +20°C° 0 mm 1 mps 652 mmHg 63%
    06:00 +21°C° 0 mm 1 mps 653 mmHg 57%
    07:00 +20°C° 0 mm 0 mps 654 mmHg 51%
    08:00 +26°C° 0 mm 1 mps 654 mmHg 38%
    09:00 +30°C° 0 mm 2 mps 655 mmHg 25%
    10:00 +34°C° 0 mm 3 mps 656 mmHg 12%
    11:00 +36°C° 0 mm 3 mps 655 mmHg 11%
    12:00 +37°C° 0 mm 3 mps 655 mmHg 9%
    13:00 +38°C° 0 mm 3 mps 654 mmHg 8%
    14:00 +38°C° 0 mm 3 mps 653 mmHg 8%
    15:00 +38°C° 0 mm 2 mps 653 mmHg 8%
    16:00 +38°C° 0 mm 2 mps 653 mmHg 8%
    17:00 +35°C° 0 mm 2 mps 653 mmHg 13%
    18:00 +31°C° 0 mm 3 mps 653 mmHg 18%
    19:00 +28°C° 0 mm 3 mps 653 mmHg 22%
    20:00 +27°C° 0 mm 3 mps 653 mmHg 32%
    21:00 +25°C° 0 mm 3 mps 653 mmHg 41%
    22:00 +22°C° 0 mm 3 mps 653 mmHg 50%
    23:00 +21°C° 0 mm 2 mps 653 mmHg 54%

    28 September, Thursday

    Time Temperature Precipitation Wind Pressure Humidity
    00:00 +20°C° 0 mm 2 mps 652 mmHg 58%
    01:00 +19°C° 0 mm 2 mps 652 mmHg 62%
    02:00 +20°C° 0 mm 1 mps 652 mmHg 64%
    03:00 +19°C° 0 mm 1 mps 652 mmHg 67%
    04:00 +18°C° 0 mm 1 mps 652 mmHg 69%
    05:00 +19°C° 0 mm 1 mps 653 mmHg 63%
    06:00 +19°C° 0 mm 0 mps 654 mmHg 57%
    07:00 +20°C° 0 mm 0 mps 654 mmHg 51%
    08:00 +25°C° 0 mm 1 mps 655 mmHg 39%
    09:00 +29°C° 0 mm 2 mps 656 mmHg 26%
    10:00 +34°C° 0 mm 2 mps 657 mmHg 14%
    11:00 +36°C° 0 mm 2 mps 656 mmHg 12%
    12:00 +38°C° 0 mm 3 mps 656 mmHg 10%
    13:00 +39°C° 0 mm 3 mps 655 mmHg 7%
    14:00 +39°C° 0 mm 2 mps 654 mmHg 7%
    15:00 +39°C° 0 mm 2 mps 654 mmHg 7%
    16:00 +39°C° 0 mm 2 mps 654 mmHg 8%
    17:00 +36°C° 0 mm 2 mps 653 mmHg 12%
    18:00 +32°C° 0 mm 2 mps 653 mmHg 17%
    19:00 +28°C° 0 mm 3 mps 653 mmHg 21%
    20:00 +27°C° 0 mm 3 mps 653 mmHg 30%
    21:00 +25°C° 0 mm 3 mps 653 mmHg 38%
    22:00 +22°C° 0 mm 3 mps 653 mmHg 47%
    23:00 +21°C° 0 mm 2 mps 653 mmHg 52%

    29 September, Friday

    Time Temperature Precipitation Wind Pressure Humidity
    00:00 +20°C° 0 mm 2 mps 653 mmHg 58%
    01:00 +19°C° 0 mm 2 mps 653 mmHg 63%
    02:00 +20°C° 0 mm 1 mps 652 mmHg 66%
    03:00 +19°C° 0 mm 1 mps 652 mmHg 68%
    04:00 +18°C° 0 mm 1 mps 652 mmHg 71%
    05:00 +20°C° 0 mm 1 mps 652 mmHg 64%
    06:00 +21°C° 0 mm 1 mps 653 mmHg 57%
    07:00 +22°C° 0 mm 1 mps 654 mmHg 50%
    08:00 +26°C° 0 mm 1 mps 655 mmHg 38%
    09:00 +31°C° 0 mm 1 mps 656 mmHg 27%
    10:00 +35°C° 0 mm 1 mps 657 mmHg 15%
    11:00 +36°C° 0 mm 1 mps 656 mmHg 15%
    12:00 +39°C° 0 mm 1 mps 656 mmHg 14%
    13:00 +40°C° 0 mm 2 mps 655 mmHg 13%
    14:00 +38°C° 0 mm 2 mps 654 mmHg 15%
    15:00 +37°C° 0 mm 2 mps 654 mmHg 16%
    16:00 +36°C° 0 mm 3 mps 653 mmHg 18%
    17:00 +32°C° 0.1 mm 2 mps 653 mmHg 22%
    18:00 +30°C° 0.1 mm 2 mps 654 mmHg 27%
    19:00 +28°C° 0.1 mm 2 mps 654 mmHg 32%
    20:00 +27°C° 0.1 mm 2 mps 654 mmHg 38%
    21:00 +25°C° 0.1 mm 1 mps 654 mmHg 44%
    22:00 +24°C° 0.1 mm 1 mps 654 mmHg 51%
    23:00 +23°C° 0.1 mm 1 mps 654 mmHg 54%

    30 September, Saturday

    Time Temperature Precipitation Wind Pressure Humidity
    00:00 +22°C° 0.1 mm 1 mps 653 mmHg 58%
    01:00 +22°C° 0.1 mm 1 mps 653 mmHg 61%
    02:00 +21°C° 0 mm 1 mps 652 mmHg 62%
    03:00 +21°C° 0 mm 1 mps 652 mmHg 63%
    04:00 +21°C° 0 mm 1 mps 652 mmHg 64%
    05:00 +22°C° 0 mm 1 mps 653 mmHg 61%
    06:00 +23°C° 0 mm 1 mps 654 mmHg 58%
    07:00 +23°C° 0 mm 1 mps 654 mmHg 56%
    08:00 +26°C° 0.1 mm 1 mps 655 mmHg 49%
    09:00 +28°C° 0.1 mm 2 mps 655 mmHg 42%
    10:00 +31°C° 0.1 mm 2 mps 656 mmHg 35%
    11:00 +34°C° 0 mm 2 mps 655 mmHg 30%
    12:00 +35°C° 0 mm 1 mps 655 mmHg 26%
    13:00 +37°C° 0 mm 1 mps 655 mmHg 21%
    14:00 +36°C° 0 mm 1 mps 654 mmHg 21%
    15:00 +36°C° 0 mm 1 mps 654 mmHg 21%
    16:00 +35°C° 0 mm 1 mps 654 mmHg 21%
    17:00 +32°C° 1.1 mm 2 mps 654 mmHg 29%
    18:00 +30°C° 1.1 mm 2 mps 653 mmHg 36%
    19:00 +27°C° 1.1 mm 3 mps 653 mmHg 44%
    20:00 +26°C° 1.3 mm 3 mps 653 mmHg 49%
    21:00 +26°C° 1.3 mm 3 mps 654 mmHg 54%
    22:00 +25°C° 1.3 mm 3 mps 654 mmHg 59%
    23:00 +24°C° 0.2 mm 2 mps 654 mmHg 60%
    Show more